Patuxent River, MD

6:21 AM EST on February 08, 2016 (GMT -0500)
Patuxent River Naval Air Station

Weather History for KNHK - February, 2013

Change the Weather History Date:

Monday, February 4, 2013

  Actual Average Record
Temperature  
Mean Temperature 33 °F -  
Max Temperature 39 °F 41 °F 61 °F (2016)
Min Temperature 27 °F 26 °F 30 °F (2014)
Degree Days  
Heating Degree Days 32    
Moisture  
Dew Point 15 °F    
Average Humidity 46    
Maximum Humidity 53    
Minimum Humidity 40    
Precipitation  
Precipitation 0.00 in - - ()
Sea Level Pressure  
Sea Level Pressure 30.02 in    
Wind  
Wind Speed 12 mph (WSW)    
Max Wind Speed 29 mph    
Max Gust Speed 36 mph    
Visibility 10 miles    
Events      
Averages and records for this station are not official NWS values.
T = Trace of Precipitation, MM = Missing Value Source: NWS Daily Summary

Daily Weather History Graph

Daily Weather History Graph

Search for Another Location

Airport or City:

Trip Planner

Search our weather history database for the weather conditions in past years. The results will help you decide how hot, cold, wet, or windy it might be!

Date:

Astronomy

Feb. 04, 2013 Rise Set
Actual Time 7:07 AM EST 5:32 PM EST
Civil Twilight 6:40 AM EST 5:59 PM EST
Nautical Twilight 6:08 AM EST 6:31 PM EST
Astronomical Twilight 5:37 AM EST 7:02 PM EST
Moon 1:40 AM EST (2/4) 11:55 AM EST (2/4)
Length of Visible Light 11h 19m
Length of Day
10h 24m
Last Quarter, 37% of the Moon is Illuminated
Feb 4
Last Quarter
Feb 10
New
Feb 17
First Quarter
Feb 25
Full
Mar 4
Last Quarter

Hourly Weather History & Observations

Time (EST) Temp. Windchill Dew Point Humidity Pressure Visibility Wind Dir Wind Speed Gust Speed Precip Events Conditions
12:52 AM 33.1 °F 23.0 °F 15.1 °F 48% 29.94 in 10.0 mi WNW 15.0 mph 26.5 mph N/A   Clear
1:52 AM 32.0 °F 21.2 °F 12.9 °F 45% 29.97 in 10.0 mi WNW 16.1 mph - N/A   Clear
2:52 AM 32.0 °F 17.9 °F 10.0 °F 40% 30.00 in 10.0 mi NW 28.8 mph 35.7 mph N/A   Scattered Clouds
3:52 AM 30.0 °F 16.3 °F 10.0 °F 43% 30.01 in 10.0 mi NW 24.2 mph 31.1 mph N/A   Clear
5:52 AM 28.0 °F 17.0 °F 10.0 °F 47% 30.06 in 10.0 mi NW 13.8 mph - N/A   Partly Cloudy
6:52 AM 27.0 °F 18.7 °F 10.0 °F 49% 30.10 in 10.0 mi NNW 8.1 mph - N/A   Scattered Clouds
7:52 AM 28.0 °F 22.8 °F 10.0 °F 47% 30.12 in 10.0 mi NNW 4.6 mph - N/A   Scattered Clouds
8:52 AM 28.9 °F 22.8 °F 10.0 °F 45% 30.13 in 10.0 mi NNW 5.8 mph - N/A   Mostly Cloudy
9:52 AM 30.0 °F 23.2 °F 10.9 °F 45% 30.13 in 10.0 mi WNW 6.9 mph - N/A   Mostly Cloudy
10:52 AM 30.9 °F 25.2 °F 12.0 °F 46% 30.13 in 10.0 mi NW 5.8 mph - N/A   Mostly Cloudy
11:52 AM 32.0 °F 27.5 °F 10.9 °F 42% 30.10 in 10.0 mi WSW 4.6 mph - N/A   Mostly Cloudy
12:52 PM 33.1 °F 24.9 °F 12.9 °F 43% 30.07 in 10.0 mi SSW 10.4 mph - N/A   Mostly Cloudy
1:52 PM 34.0 °F 26.6 °F 14.0 °F 44% 30.04 in 10.0 mi South 9.2 mph - N/A   Mostly Cloudy
2:52 PM 37.0 °F 29.8 °F 15.1 °F 41% 30.02 in 10.0 mi SSW 10.4 mph - N/A   Mostly Cloudy
3:52 PM 37.0 °F 30.4 °F 15.1 °F 41% 30.01 in 10.0 mi SSW 9.2 mph - N/A   Mostly Cloudy
4:52 PM 37.0 °F 31.6 °F 16.0 °F 42% 29.99 in 10.0 mi SSW 6.9 mph - N/A   Mostly Cloudy
5:52 PM 37.0 °F - 17.1 °F 44% 29.98 in 10.0 mi Calm Calm - N/A   Mostly Cloudy
6:52 PM 36.0 °F - 19.0 °F 50% 29.99 in 10.0 mi Calm Calm - N/A   Overcast
7:52 PM 37.0 °F 33.3 °F 19.0 °F 48% 29.99 in 10.0 mi SE 4.6 mph - N/A   Overcast
8:52 PM 37.0 °F 33.3 °F 21.0 °F 52% 29.97 in 10.0 mi SSE 4.6 mph - N/A   Overcast
9:52 PM 37.9 °F 32.7 °F 21.9 °F 53% 29.95 in 10.0 mi South 6.9 mph - N/A   Overcast
10:52 PM 39.0 °F 34.8 °F 23.0 °F 53% 29.94 in 10.0 mi SSE 5.8 mph - N/A   Overcast
11:52 PM 39.0 °F 34.8 °F 23.0 °F 53% 29.92 in 10.0 mi South 5.8 mph - N/A   Overcast